Content
SEND FEEDBACK

Daily
Averages
Monthly
Summary
Canada

VANCOUVER, BRITISH COLUMBIA


Home > North America > Canada > British Columbia
Elevation: 7 feet     Latitude: 49 11N     Longitude: 123 10W

WEATHER
 
SELECT A DAY
Number of Records: 254,959;   Date Range: 5/15/97 - 12/20/14
 
SHARE

PRINT THIS DATA

[ ← Previous Day ]
WEATHER ALMANAC - NOVEMBER 21, 2013
[ Next Day → ]
[ °C ]   °F
Weather ElementAverageHighLow
Temperature34.3 °F39.2 °F (1:15 pm)30.2 °F (8:55 pm)
Dewpoint34.3 °F39.2 °F (1:15 pm)30.2 °F (8:55 pm)
Humidity100 %100 % (12:35 am)100 % (12:35 am)
Barometer30.63 in30.68 in (5:55 pm)30.53 in (12:35 am)
Wind Speed1.9 mph6.9 mph (1:55 am)
Weather ElementAverage
Visibility9.8 mi
Wind DirectionNNE (27.2 °)

Weather ElementTotal
Precipitation---
Heating Degree Days30.3 (Base 65)
Averaged from 71 records on November 21, 2013
WEATHER CONDITIONS BREAKOUT
WIND DIRECTION BREAKOUT
WEATHER BY HOUR - NOVEMBER 21, 2013
[ °C ]   °F
Local TimeTemperatureDewpointHumidityBarometerVisibilityWind DirectionWind SpeedGust SpeedPrecipitationEventsConditions
12:35 AM32.0 °F32.0 °F100 %30.53 in10.0 miENE (70°)3.5 mphClear
12:55 AM32.0 °F32.0 °F100 %30.53 in10.0 miCalmClear
1:15 AM32.0 °F32.0 °F100 %30.54 in10.0 miCalmPartly Cloudy
1:35 AM32.0 °F32.0 °F100 %30.54 in10.0 miCalmPartly Cloudy
1:55 AM32.0 °F32.0 °F100 %30.55 in10.0 miNE (50°)6.9 mphClear
2:15 AM32.0 °F32.0 °F100 %30.55 in10.0 miCalmClear
2:35 AM32.0 °F32.0 °F100 %30.55 in10.0 miNE (50°)4.6 mphClear
2:55 AM32.0 °F32.0 °F100 %30.56 in10.0 miCalmClear
3:15 AM32.0 °F32.0 °F100 %30.57 in10.0 miNorthClear
3:35 AM32.0 °F32.0 °F100 %30.57 in10.0 miNE (50°)3.5 mphClear
3:55 AM32.0 °F32.0 °F100 %30.57 in10.0 miCalmClear
4:15 AM32.0 °F32.0 °F100 %30.58 in10.0 miENE (60°)5.8 mphClear
4:35 AM32.0 °F32.0 °F100 %30.58 in10.0 miENE (60°)5.8 mphClear
4:55 AM32.0 °F32.0 °F100 %30.59 in10.0 miENE (60°)4.6 mphClear
5:15 AM32.0 °F32.0 °F100 %30.59 in10.0 miENE (70°)3.5 mphClear
5:35 AM32.0 °F32.0 °F100 %30.59 in10.0 miNE (50°)3.5 mphClear
5:55 AM32.0 °F32.0 °F100 %30.60 in10.0 miNE (50°)5.8 mphClear
6:15 AM32.0 °F32.0 °F100 %30.60 in10.0 miCalmClear
6:35 AM32.0 °F32.0 °F100 %30.61 in10.0 miNE (50°)3.5 mphClear
6:55 AM32.0 °F32.0 °F100 %30.62 in10.0 miNE (50°)5.8 mphClear
7:15 AM32.0 °F32.0 °F100 %30.62 in10.0 miENE (60°)3.5 mphClear
7:35 AM32.0 °F32.0 °F100 %30.62 in10.0 miCalmClear
7:55 AM32.0 °F32.0 °F100 %30.62 in10.0 miENE (60°)4.6 mphClear
8:15 AM32.0 °F32.0 °F100 %30.63 in10.0 miENE (70°)4.6 mphClear
8:35 AM32.0 °F32.0 °F100 %30.63 in10.0 miCalmClear
8:55 AM32.0 °F32.0 °F100 %30.64 in10.0 miCalmClear
9:15 AM33.8 °F33.8 °F100 %30.65 in10.0 miCalmClear
9:35 AM35.6 °F35.6 °F100 %30.65 in10.0 miENE (70°)3.5 mphClear
9:55 AM35.6 °F35.6 °F100 %30.65 in10.0 miCalmClear
10:15 AM35.6 °F35.6 °F100 %30.66 in10.0 miCalmClear
10:35 AM35.6 °F35.6 °F100 %30.66 in10.0 miCalmClear
10:55 AM37.4 °F37.4 °F100 %30.67 in10.0 miCalmClear
11:15 AM37.4 °F37.4 °F100 %30.66 in10.0 miNE (40°)4.6 mphClear
11:35 AM37.4 °F37.4 °F100 %30.66 in10.0 miNE (50°)4.6 mphClear
11:55 AM37.4 °F37.4 °F100 %30.66 in10.0 miNorth (10°)3.5 mphClear
12:15 PM37.4 °F37.4 °F100 %30.66 in10.0 miCalmClear
12:35 PM37.4 °F37.4 °F100 %30.65 in10.0 miCalmClear
12:55 PM37.4 °F37.4 °F100 %30.65 in10.0 miCalmClear
1:15 PM39.2 °F39.2 °F100 %30.65 in10.0 miNorth (360°)3.5 mphClear
1:35 PM39.2 °F39.2 °F100 %30.65 in10.0 miCalmClear
1:55 PM39.2 °F39.2 °F100 %30.65 in10.0 miENE (70°)3.5 mphClear
2:15 PM39.2 °F39.2 °F100 %30.65 in10.0 miNNE (20°)3.5 mphClear
2:35 PM39.2 °F39.2 °F100 %30.65 in10.0 miNE (50°)4.6 mphClear
2:55 PM39.2 °F39.2 °F100 %30.65 in10.0 miCalmClear
3:15 PM39.2 °F39.2 °F100 %30.65 in10.0 miNNE (30°)3.5 mphClear
3:35 PM39.2 °F39.2 °F100 %30.65 in10.0 miCalmClear
3:55 PM37.4 °F37.4 °F100 %30.65 in10.0 miCalmClear
4:15 PM37.4 °F37.4 °F100 %30.65 in10.0 miCalmClear
4:35 PM35.6 °F35.6 °F100 %30.66 in9.0 miCalmClear
4:55 PM35.6 °F35.6 °F100 %30.66 in10.0 miCalmClear
5:15 PM33.8 °F33.8 °F100 %30.67 in10.0 miCalmClear
5:35 PM32.0 °F32.0 °F100 %30.67 in10.0 miCalmClear
5:55 PM32.0 °F32.0 °F100 %30.68 in10.0 miCalmClear
6:15 PM32.0 °F32.0 °F100 %30.67 in10.0 miCalmClear
6:35 PM32.0 °F32.0 °F100 %30.66 in10.0 miCalmClear
6:55 PM32.0 °F32.0 °F100 %30.66 in10.0 miCalmClear
7:15 PM32.0 °F32.0 °F100 %30.65 in8.0 miCalmClear
7:35 PM32.0 °F32.0 °F100 %30.65 in8.0 miCalmClear
7:55 PM32.0 °F32.0 °F100 %30.65 in9.0 miCalmClear
8:15 PM32.0 °F32.0 °F100 %30.66 in8.0 miCalmClear
8:35 PM32.0 °F32.0 °F100 %30.66 in10.0 miCalmClear
8:55 PM30.2 °F30.2 °F100 %30.66 in10.0 miCalmClear
9:15 PM35.6 °F35.6 °F100 %30.67 in9.0 miENE (70°)3.5 mphClear
9:35 PM35.6 °F35.6 °F100 %30.67 in8.0 miNE (40°)4.6 mphClear
9:55 PM35.6 °F35.6 °F100 %30.66 in10.0 miNNE (30°)5.8 mphClear
10:15 PM37.4 °F37.4 °F100 %30.66 in10.0 miCalmClear
10:35 PM35.6 °F35.6 °F100 %30.66 in10.0 miNE (50°)4.6 mphClear
10:55 PM35.6 °F35.6 °F100 %30.67 in10.0 miCalmClear
11:15 PM35.6 °F35.6 °F100 %30.67 in10.0 miNE (50°)3.5 mphClear
11:35 PM35.6 °F35.6 °F100 %30.68 in10.0 miEast (80°)3.5 mphClear
11:55 PM35.6 °F35.6 °F100 %30.68 in10.0 miNE (50°)5.8 mphClear
Hourly data recorded from CZBB, located miles away from Vancouver, British Columbia







STORIES FROM OUR PARTNERS